^^
Your Local Weather - Clay, NY Station Historical Data
Daily Summary for April 8, 2017 Units:  Metric    English   Both
« Previous Day
Next Day »
Daily Weekly Monthly Yearly Custom
  High: Low: Average:
Temperature: 8.2 °C -0.2 °C 3.8 °C
Dew Point: -0.7 °C -7.6 °C -4.2 °C
Humidity: 73% 35% 57%
Wind Speed: 11.3km/h 0km/h 6km/h
Wind Gust: 20.9km/h - -
Wind- - NW
Pressure: 1015.1 hPa 1005.3 hPa -
Precipitation: 0.25 mm    
Historical Graphs
 
 
Tabular Data for April 8, 2017
Time Temperature Dew Point Pressure Wind Wind Speed Wind Gust Humidity Rainfall Rate (Hourly) solar
00:00 2.4 °C -2.7 °C 1005.3 hPa WNW 6.4 km/h 6.4 km/h 69% 0 mm 0 W/m2
00:06 2.4 °C -2.9 °C 1005.3 hPa NW 8 km/h 8 km/h 68% 0 mm 0 W/m2
00:12 2.4 °C -2.9 °C 1005.3 hPa NNW 8 km/h 9.7 km/h 68% 0 mm 0 W/m2
00:18 2.4 °C -3.1 °C 1005.3 hPa NNW 8 km/h 12.9 km/h 67% 0 mm 0 W/m2
00:24 2.3 °C -3.2 °C 1005.3 hPa NNW 6.4 km/h 12.9 km/h 67% 0 mm 0 W/m2
00:30 2.3 °C -3 °C 1005.3 hPa WNW 6.4 km/h 6.4 km/h 68% 0 mm 0 W/m2
00:36 2.3 °C -2.8 °C 1005.3 hPa WNW 3.2 km/h 6.4 km/h 69% 0 mm 0 W/m2
00:42 2.3 °C -2.6 °C 1005.3 hPa NW 4.8 km/h 4.8 km/h 70% 0 mm 0 W/m2
00:48 2.2 °C -2.5 °C 1005.6 hPa WNW 6.4 km/h 8 km/h 71% 0 mm 0 W/m2
00:54 2.3 °C -2.6 °C 1005.6 hPa WSW 6.4 km/h 9.7 km/h 70% 0 mm 0 W/m2
01:00 2.3 °C -2.8 °C 1005.6 hPa West 8 km/h 14.5 km/h 69% 0 mm 0 W/m2
01:06 2.3 °C -2.8 °C 1005.6 hPa WNW 6.4 km/h 14.5 km/h 69% 0 mm 0 W/m2
01:12 2.3 °C -3 °C 1005.6 hPa NW 4.8 km/h 8 km/h 68% 0 mm 0 W/m2
01:18 2.3 °C -3 °C 1005.6 hPa NW 6.4 km/h 8 km/h 68% 0 mm 0 W/m2
01:24 2.3 °C -2.8 °C 1005.6 hPa WNW 6.4 km/h 8 km/h 69% 0 mm 0 W/m2
01:30 2.3 °C -2.6 °C 1005.6 hPa NW 3.2 km/h 4.8 km/h 70% 0 mm 0 W/m2
01:36 2.3 °C -2.8 °C 1005.6 hPa West 6.4 km/h 14.5 km/h 69% 0 mm 0 W/m2
01:42 2.3 °C -3 °C 1005.6 hPa NW 8 km/h 8 km/h 68% 0 mm 0 W/m2
01:48 2.3 °C -3.2 °C 1005.6 hPa NW 8 km/h 19.3 km/h 67% 0 mm 0 W/m2
01:54 2.3 °C -3 °C 1006 hPa NW 8 km/h 9.7 km/h 68% 0 mm 0 W/m2
02:00 2.2 °C -3.1 °C 1006 hPa WNW 6.4 km/h 9.7 km/h 68% 0 mm 0 W/m2
02:04 2.1 °C -3.2 °C 1006 hPa NNW 6.4 km/h 19.3 km/h 68% 0 mm 0 W/m2
02:10 2.1 °C -3.4 °C 1006 hPa WNW 6.4 km/h 12.9 km/h 67% 0 mm 0 W/m2
02:16 2.1 °C -3.8 °C 1006 hPa WNW 8 km/h 12.9 km/h 65% 0 mm 0 W/m2
02:22 2 °C -3.7 °C 1006 hPa NW 8 km/h 9.7 km/h 66% 0 mm 0 W/m2
02:28 1.9 °C -3.7 °C 1006 hPa NNW 6.4 km/h 14.5 km/h 66% 0 mm 0 W/m2
02:34 1.9 °C -4 °C 1006 hPa NW 6.4 km/h 6.4 km/h 65% 0 mm 0 W/m2
02:40 1.9 °C -4 °C 1006 hPa West 9.7 km/h 14.5 km/h 65% 0 mm 0 W/m2
02:46 1.8 °C -4.3 °C 1006 hPa NW 9.7 km/h 14.5 km/h 64% 0 mm 0 W/m2
02:52 1.8 °C -4.1 °C 1006 hPa WNW 6.4 km/h 6.4 km/h 65% 0 mm 0 W/m2
02:58 1.8 °C -4.5 °C 1006 hPa NW 8 km/h 8 km/h 63% 0 mm 0 W/m2
03:04 1.8 °C -4.5 °C 1006 hPa WNW 8 km/h 9.7 km/h 63% 0 mm 0 W/m2
03:10 1.7 °C -4.2 °C 1006.3 hPa WNW 4.8 km/h 4.8 km/h 65% 0 mm 0 W/m2
03:16 1.7 °C -4.2 °C 1006.3 hPa NNW 4.8 km/h 6.4 km/h 65% 0 mm 0 W/m2
03:22 1.6 °C -4.1 °C 1006.3 hPa WSW 4.8 km/h 4.8 km/h 66% 0 mm 0 W/m2
03:28 1.6 °C -3.9 °C 1006.3 hPa NNW 4.8 km/h 4.8 km/h 67% 0 mm 0 W/m2
03:34 1.6 °C -3.9 °C 1006.3 hPa NNW 6.4 km/h 8 km/h 67% 0 mm 0 W/m2
03:40 1.6 °C -3.7 °C 1006.3 hPa West 8 km/h 12.9 km/h 68% 0 mm 0 W/m2
03:46 1.5 °C -3.9 °C 1006.3 hPa NW 8 km/h 14.5 km/h 67% 0 mm 0 W/m2
03:52 1.3 °C -4.1 °C 1006.3 hPa NNW 8 km/h 19.3 km/h 67% 0 mm 0 W/m2
03:58 1.2 °C -4.4 °C 1006.7 hPa NW 8 km/h 19.3 km/h 66% 0 mm 0 W/m2
04:04 1.2 °C -4.3 °C 1006.7 hPa NW 8 km/h 12.9 km/h 67% 0 mm 0 W/m2
04:10 1.1 °C -4.2 °C 1006.7 hPa North 6.4 km/h 16.1 km/h 68% 0 mm 0 W/m2
04:16 1.1 °C -3.9 °C 1006.7 hPa West 6.4 km/h 16.1 km/h 69% 0 mm 0 W/m2
04:22 1.1 °C -4 °C 1007 hPa NW 4.8 km/h 6.4 km/h 69% 0 mm 0 W/m2
04:28 1.1 °C -4 °C 1007 hPa WNW 6.4 km/h 9.7 km/h 69% 0 mm 0 W/m2
04:34 1 °C -4.2 °C 1007 hPa WNW 8 km/h 12.9 km/h 68% 0 mm 0 W/m2
04:40 0.9 °C -4.2 °C 1007 hPa WNW 6.4 km/h 6.4 km/h 69% 0 mm 0 W/m2
04:46 0.8 °C -4.3 °C 1007 hPa NNW 6.4 km/h 9.7 km/h 69% 0 mm 0 W/m2
04:52 0.6 °C -4.2 °C 1007.3 hPa WNW 6.4 km/h 6.4 km/h 70% 0 mm 0 W/m2
04:58 0.4 °C -4.4 °C 1007.3 hPa West 4.8 km/h 12.9 km/h 70% 0 mm 0 W/m2
05:04 0.4 °C -4.4 °C 1007.7 hPa NW 6.4 km/h 6.4 km/h 70% 0 mm 0 W/m2
05:10 0.3 °C -4.6 °C 1007.7 hPa WNW 4.8 km/h 6.4 km/h 70% 0 mm 0 W/m2
05:16 0.2 °C -4.5 °C 1007.7 hPa NW 4.8 km/h 6.4 km/h 71% 0 mm 0 W/m2
05:22 0.2 °C -4.7 °C 1007.7 hPa NW 4.8 km/h 6.4 km/h 70% 0 mm 0 W/m2
05:28 0.1 °C -4.8 °C 1007.7 hPa WNW 4.8 km/h 6.4 km/h 70% 0 mm 0 W/m2
05:30 0 °C -4.6 °C 1008 hPa NW 4.8 km/h 4.8 km/h 71% 0 mm 0 W/m2
05:36 -0.1 °C -4.7 °C 1008 hPa NNW 3.2 km/h 4.8 km/h 71% 0 mm 0 W/m2
05:42 -0.1 °C -4.6 °C 1008 hPa NNW 1.6 km/h 3.2 km/h 72% 0 mm 0 W/m2
05:48 -0.2 °C -4.6 °C 1008 hPa NNW 1.6 km/h 3.2 km/h 72% 0 mm 0 W/m2
05:54 -0.2 °C -4.5 °C 1008 hPa NNW 1.6 km/h 8 km/h 73% 0 mm 0 W/m2
06:00 -0.2 °C -4.4 °C 1008.4 hPa NNW 1.6 km/h 3.2 km/h 73% 0 mm 0 W/m2
06:06 -0.1 °C -4.4 °C 1008.4 hPa NW 1.6 km/h 3.2 km/h 73% 0 mm 0 W/m2
06:12 -0.1 °C -4.4 °C 1008.4 hPa NW 3.2 km/h 3.2 km/h 73% 0 mm 0 W/m2
06:18 -0.2 °C -4.6 °C 1008.4 hPa NNW 3.2 km/h 4.8 km/h 72% 0 mm 0 W/m2
06:24 -0.2 °C -4.6 °C 1008.7 hPa SW 3.2 km/h 6.4 km/h 72% 0 mm 0 W/m2
06:30 -0.2 °C -4.7 °C 1008.7 hPa WNW 3.2 km/h 3.2 km/h 72% 0 mm 0 W/m2
06:36 -0.1 °C -4.5 °C 1008.7 hPa NW 4.8 km/h 6.4 km/h 72% 0 mm 0 W/m2
06:42 0.1 °C -4.4 °C 1009 hPa NW 4.8 km/h 4.8 km/h 72% 0 mm 5 W/m2
06:48 0.1 °C -4.6 °C 1009 hPa NW 4.8 km/h 6.4 km/h 71% 0 mm 11 W/m2
06:54 0.1 °C -4.6 °C 1009 hPa NW 4.8 km/h 4.8 km/h 71% 0 mm 18 W/m2
07:00 0.2 °C -4.3 °C 1009.4 hPa NNW 4.8 km/h 4.8 km/h 72% 0 mm 23 W/m2
07:06 0.1 °C -4.4 °C 1009.4 hPa NNW 3.2 km/h 4.8 km/h 72% 0 mm 18 W/m2
07:12 0 °C -4.4 °C 1009.7 hPa NW 4.8 km/h 4.8 km/h 72% 0 mm 21 W/m2
07:18 0 °C -4.3 °C 1009.7 hPa WNW 3.2 km/h 6.4 km/h 73% 0 mm 23 W/m2
07:24 0.1 °C -4.2 °C 1009.7 hPa WNW 3.2 km/h 8 km/h 73% 0 mm 25 W/m2
07:30 0.2 °C -4.1 °C 1009.7 hPa North 3.2 km/h 3.2 km/h 73% 0 mm 47 W/m2
07:36 0.3 °C -4.2 °C 1010 hPa NW 4.8 km/h 12.9 km/h 72% 0 mm 40 W/m2
07:42 0.3 °C -4.2 °C 1010 hPa NW 4.8 km/h 4.8 km/h 72% 0 mm 132 W/m2
07:48 0.4 °C -4 °C 1010 hPa WNW 3.2 km/h 6.4 km/h 72% 0 mm 100 W/m2
07:54 0.7 °C -4.1 °C 1010 hPa NW 4.8 km/h 8 km/h 70% 0 mm 209 W/m2
08:00 0.9 °C -3.9 °C 1010 hPa NNW 6.4 km/h 6.4 km/h 70% 0 mm 213 W/m2
08:06 1.3 °C -3.6 °C 1010 hPa WNW 4.8 km/h 6.4 km/h 70% 0 mm 185 W/m2
08:12 1.3 °C -3.7 °C 1010.4 hPa NW 6.4 km/h 6.4 km/h 69% 0 mm 236 W/m2
08:18 1.4 °C -3.6 °C 1010.4 hPa NNW 6.4 km/h 8 km/h 69% 0 mm 258 W/m2
08:24 1.7 °C -3.4 °C 1010.4 hPa NW 6.4 km/h 6.4 km/h 69% 0 mm 265 W/m2
08:30 1.8 °C -3.3 °C 1010.7 hPa NNW 6.4 km/h 6.4 km/h 69% 0 mm 318 W/m2
08:36 1.8 °C -3.4 °C 1010.7 hPa WNW 8 km/h 14.5 km/h 68% 0 mm 160 W/m2
08:42 1.8 °C -3.5 °C 1010.7 hPa NNW 8 km/h 11.3 km/h 68% 0 mm 239 W/m2
08:48 1.7 °C -3.6 °C 1010.7 hPa NW 8 km/h 11.3 km/h 68% 0 mm 137 W/m2
08:54 1.6 °C -3.7 °C 1010.7 hPa North 8 km/h 8 km/h 68% 0 mm 165 W/m2
09:00 1.7 °C -3.4 °C 1011.1 hPa NNW 6.4 km/h 9.7 km/h 69% 0 mm 125 W/m2
09:06 2.1 °C -3.2 °C 1011.1 hPa NW 8 km/h 19.3 km/h 68% 0 mm 348 W/m2
09:12 2.3 °C -3 °C 1011.1 hPa NW 8 km/h 9.7 km/h 68% 0 mm 167 W/m2
09:18 2.2 °C -3.6 °C 1011.1 hPa WNW 6.4 km/h 14.5 km/h 66% 0 mm 244 W/m2
09:24 2.1 °C -3.7 °C 1011.1 hPa NNE 6.4 km/h 8 km/h 66% 0 mm 239 W/m2
09:30 1.8 °C -3.9 °C 1011.1 hPa NNW 9.7 km/h 14.5 km/h 66% 0 mm 207 W/m2
09:36 1.9 °C -3.6 °C 1011.4 hPa NW 11.3 km/h 14.5 km/h 67% 0 mm 244 W/m2
09:42 1.9 °C -4 °C 1011.4 hPa NNW 8 km/h 9.7 km/h 65% 0 mm 223 W/m2
09:48 2.3 °C -3 °C 1011.4 hPa WSW 8 km/h 11.3 km/h 68% 0 mm 232 W/m2
09:54 2.6 °C -3.7 °C 1011.4 hPa WNW 8 km/h 9.7 km/h 63% 0 mm 352 W/m2
10:00 2.9 °C -3.4 °C 1011.4 hPa NW 8 km/h 8 km/h 63% 0 mm 237 W/m2
10:06 3.3 °C -2.7 °C 1011.7 hPa NW 6.4 km/h 12.9 km/h 65% 0 mm 793 W/m2
10:12 2.8 °C -3.5 °C 1011.7 hPa NNW 6.4 km/h 14.5 km/h 63% 0 mm 250 W/m2
10:18 2.6 °C -3.5 °C 1011.7 hPa NW 9.7 km/h 14.5 km/h 64% 0 mm 345 W/m2
10:24 3.2 °C -3.2 °C 1011.7 hPa North 8 km/h 9.7 km/h 63% 0 mm 385 W/m2
10:30 2.6 °C -4.2 °C 1011.7 hPa NW 8 km/h 8 km/h 61% 0 mm 209 W/m2
10:36 3.4 °C -3.2 °C 1011.7 hPa WNW 9.7 km/h 9.7 km/h 62% 0 mm 596 W/m2
10:42 3.3 °C -3.3 °C 1011.7 hPa WNW 8 km/h 17.7 km/h 62% 0 mm 255 W/m2
10:48 4.2 °C -3.2 °C 1011.7 hPa West 8 km/h 17.7 km/h 59% 0 mm 833 W/m2
10:54 3.7 °C -3.1 °C 1011.7 hPa West 8 km/h 12.9 km/h 61% 0 mm 149 W/m2
11:00 4.2 °C -2.2 °C 1011.7 hPa NNW 8 km/h 8 km/h 63% 0 mm 802 W/m2
11:06 4.6 °C -2.1 °C 1012.1 hPa North 8 km/h 14.5 km/h 62% 0 mm 788 W/m2
11:12 4.6 °C -2.1 °C 1012.1 hPa NNW 8 km/h 8 km/h 62% 0 mm 812 W/m2
11:18 4.7 °C -2.6 °C 1012.1 hPa NNW 6.4 km/h 11.3 km/h 59% 0 mm 823 W/m2
11:24 5.2 °C -1.5 °C 1012.1 hPa NW 6.4 km/h 8 km/h 62% 0 mm 842 W/m2
11:30 4.7 °C -2.6 °C 1012.1 hPa NW 9.7 km/h 9.7 km/h 59% 0 mm 846 W/m2
11:36 5.1 °C -2.8 °C 1012.1 hPa WNW 9.7 km/h 12.9 km/h 57% 0 mm 904 W/m2
11:42 5 °C -2.3 °C 1012.1 hPa NNW 8 km/h 11.3 km/h 59% 0 mm 856 W/m2
11:48 4.9 °C -2.7 °C 1012.1 hPa NW 8 km/h 11.3 km/h 58% 0 mm 856 W/m2
11:54 5.4 °C -1.8 °C 1012.1 hPa NW 8 km/h 8 km/h 60% 0 mm 861 W/m2
12:00 5.4 °C -2.2 °C 1012.1 hPa West 8 km/h 9.7 km/h 58% 0 mm 856 W/m2
12:06 5.6 °C -2.7 °C 1012.4 hPa North 8 km/h 11.3 km/h 55% 0 mm 856 W/m2
12:12 5.5 °C -2.6 °C 1012.4 hPa NW 9.7 km/h 9.7 km/h 56% 0 mm 879 W/m2
12:18 5.6 °C -1.8 °C 1012.4 hPa NW 9.7 km/h 9.7 km/h 59% 0 mm 935 W/m2
12:24 5.7 °C -2.4 °C 1012.4 hPa NW 9.7 km/h 9.7 km/h 56% 0 mm 912 W/m2
12:30 5.8 °C -2.1 °C 1012.4 hPa NNW 8 km/h 20.9 km/h 57% 0 mm 960 W/m2
12:36 6.1 °C -1.4 °C 1012.4 hPa North 9.7 km/h 20.9 km/h 59% 0 mm 919 W/m2
12:42 6.1 °C -0.7 °C 1012.4 hPa NNW 9.7 km/h 16.1 km/h 62% 0 mm 990 W/m2
12:48 6.3 °C -2.6 °C 1012.4 hPa NW 8 km/h 16.1 km/h 53% 0 mm 977 W/m2
12:54 5.8 °C -2.6 °C 1012.4 hPa NW 9.7 km/h 9.7 km/h 55% 0 mm 914 W/m2
13:00 6.4 °C -2.3 °C 1012.4 hPa West 8 km/h 8 km/h 54% 0 mm 471 W/m2
13:06 6.2 °C -1.7 °C 1012.4 hPa WNW 8 km/h 11.3 km/h 57% 0 mm 991 W/m2
13:12 6.6 °C -2.1 °C 1012.4 hPa NW 8 km/h 12.9 km/h 54% 0 mm 1002 W/m2
13:18 6.2 °C -2.2 °C 1012.4 hPa NW 9.7 km/h 14.5 km/h 55% 0 mm 898 W/m2
13:24 6.6 °C -1.1 °C 1012.1 hPa WSW 8 km/h 9.7 km/h 58% 0 mm 905 W/m2
13:30 6.8 °C -2.2 °C 1012.4 hPa North 8 km/h 9.7 km/h 53% 0 mm 872 W/m2
13:36 6.3 °C -0.9 °C 1012.4 hPa WNW 11.3 km/h 11.3 km/h 60% 0 mm 868 W/m2
13:42 6.2 °C -2.7 °C 1012.4 hPa WNW 9.7 km/h 17.7 km/h 53% 0 mm 868 W/m2
13:48 6.3 °C -2.6 °C 1012.4 hPa WNW 8 km/h 17.7 km/h 53% 0 mm 870 W/m2
13:54 6.1 °C -3.6 °C 1012.4 hPa NW 9.7 km/h 17.7 km/h 50% 0 mm 867 W/m2
14:00 6.3 °C -2.3 °C 1012.4 hPa NW 11.3 km/h 11.3 km/h 54% 0 mm 861 W/m2
14:06 6.7 °C -2.8 °C 1012.4 hPa WNW 9.7 km/h 16.1 km/h 51% 0 mm 854 W/m2
14:12 6.4 °C -2.2 °C 1012.8 hPa West 9.7 km/h 9.7 km/h 54% 0 mm 849 W/m2
14:18 6.9 °C -1.5 °C 1012.8 hPa WNW 9.7 km/h 11.3 km/h 55% 0 mm 879 W/m2
14:24 7.3 °C -1.9 °C 1012.8 hPa NNW 6.4 km/h 12.9 km/h 52% 0 mm 835 W/m2
14:30 6.8 °C -1.4 °C 1012.8 hPa WNW 8 km/h 11.3 km/h 56% 0 mm 916 W/m2
14:36 6.6 °C -2.6 °C 1012.8 hPa WNW 9.7 km/h 14.5 km/h 52% 0 mm 835 W/m2
14:42 6.6 °C -2.6 °C 1012.8 hPa NW 9.7 km/h 9.7 km/h 52% 0 mm 824 W/m2
14:48 6.6 °C -2.3 °C 1012.8 hPa NW 9.7 km/h 14.5 km/h 53% 0 mm 863 W/m2
14:54 6.2 °C -2.7 °C 1012.8 hPa WNW 11.3 km/h 12.9 km/h 53% 0 mm 828 W/m2
15:00 6.6 °C -2.1 °C 1012.8 hPa West 9.7 km/h 9.7 km/h 54% 0 mm 768 W/m2
15:06 6.4 °C -2.8 °C 1012.8 hPa West 8 km/h 9.7 km/h 52% 0 mm 749 W/m2
15:12 6.4 °C -3.3 °C 1012.8 hPa WNW 9.7 km/h 9.7 km/h 50% 0 mm 731 W/m2
15:18 6.7 °C -2.2 °C 1012.8 hPa NW 8 km/h 9.7 km/h 53% 0 mm 747 W/m2
15:24 6.9 °C -2.1 °C 1012.8 hPa WSW 8 km/h 8 km/h 53% 0 mm 740 W/m2
15:30 7.1 °C -2.9 °C 1012.8 hPa WSW 8 km/h 12.9 km/h 49% 0 mm 719 W/m2
15:36 6.8 °C -2.4 °C 1012.8 hPa NW 9.7 km/h 12.9 km/h 52% 0 mm 701 W/m2
15:42 6.9 °C -2.6 °C 1012.8 hPa NNW 9.7 km/h 9.7 km/h 51% 0 mm 687 W/m2
15:48 7 °C -3 °C 1012.8 hPa WNW 9.7 km/h 9.7 km/h 49% 0 mm 673 W/m2
15:54 7.1 °C -3.4 °C 1012.8 hPa WNW 9.7 km/h 9.7 km/h 47% 0 mm 659 W/m2
16:00 7.2 °C -3.1 °C 1012.8 hPa NW 8 km/h 8 km/h 48% 0 mm 647 W/m2
16:06 7.3 °C -3.6 °C 1012.8 hPa WNW 8 km/h 12.9 km/h 46% 0 mm 631 W/m2
16:12 7.6 °C -3.3 °C 1012.8 hPa WNW 8 km/h 11.3 km/h 46% 0 mm 613 W/m2
16:18 7.7 °C -3.6 °C 1012.8 hPa WSW 8 km/h 16.1 km/h 45% 0 mm 599 W/m2
16:24 7.6 °C -3.9 °C 1012.8 hPa West 8 km/h 14.5 km/h 44% 0 mm 584 W/m2
16:30 7.8 °C -2.3 °C 1012.8 hPa NW 8 km/h 8 km/h 49% 0 mm 564 W/m2
16:36 7.9 °C -3.1 °C 1012.8 hPa West 8 km/h 14.5 km/h 46% 0 mm 517 W/m2
16:42 7.9 °C -3.9 °C 1012.8 hPa NNW 8 km/h 17.7 km/h 43% 0 mm 533 W/m2
16:48 7.8 °C -4.6 °C 1012.8 hPa West 9.7 km/h 17.7 km/h 41% 0 mm 515 W/m2
16:54 7.8 °C -3.7 °C 1012.8 hPa NW 8 km/h 9.7 km/h 44% 0 mm 499 W/m2
17:00 8.2 °C -3.7 °C 1012.8 hPa WNW 6.4 km/h 6.4 km/h 43% 0 mm 480 W/m2
17:06 7.9 °C -3.6 °C 1012.8 hPa NW 8 km/h 14.5 km/h 44% 0 mm 462 W/m2
17:12 7.9 °C -4.2 °C 1012.8 hPa NW 8 km/h 11.3 km/h 42% 0 mm 445 W/m2
17:14 7.8 °C -4.6 °C 1012.8 hPa NW 8 km/h 11.3 km/h 41% 0 mm 439 W/m2
17:20 7.8 °C -4.1 °C 1012.8 hPa West 9.7 km/h 14.5 km/h 43% 0 mm 420 W/m2
17:26 7.7 °C -5.1 °C 1012.8 hPa West 9.7 km/h 14.5 km/h 40% 0 mm 403 W/m2
17:32 7.7 °C -5.1 °C 1012.8 hPa NNW 9.7 km/h 9.7 km/h 40% 0 mm 383 W/m2
17:38 7.7 °C -5.1 °C 1012.8 hPa WNW 8 km/h 9.7 km/h 40% 0 mm 364 W/m2
17:44 7.7 °C -4.4 °C 1012.8 hPa West 8 km/h 8 km/h 42% 0 mm 315 W/m2
17:50 7.8 °C -5.7 °C 1013.1 hPa NW 6.4 km/h 6.4 km/h 38% 0 mm 287 W/m2
17:56 7.8 °C -5.7 °C 1013.1 hPa WNW 8 km/h 8 km/h 38% 0 mm 202 W/m2
18:02 7.9 °C -6.7 °C 1013.1 hPa WNW 8 km/h 9.7 km/h 35% 0 mm 213 W/m2
18:08 7.6 °C -6.6 °C 1013.1 hPa WNW 8 km/h 14.5 km/h 36% 0 mm 195 W/m2
18:14 7.5 °C -7 °C 1013.1 hPa West 9.7 km/h 11.3 km/h 35% 0 mm 179 W/m2
18:20 7.4 °C -7.1 °C 1013.1 hPa WNW 8 km/h 8 km/h 35% 0 mm 163 W/m2
18:26 7.3 °C -6.8 °C 1013.1 hPa WNW 9.7 km/h 12.9 km/h 36% 0 mm 169 W/m2
18:32 7.2 °C -7.3 °C 1013.4 hPa NW 9.7 km/h 9.7 km/h 35% 0 mm 76 W/m2
18:38 7.2 °C -6.6 °C 1013.1 hPa WNW 8 km/h 9.7 km/h 37% 0 mm 113 W/m2
18:44 7.1 °C -6.3 °C 1013.1 hPa WNW 8 km/h 17.7 km/h 38% 0 mm 130 W/m2
18:50 7.2 °C -6.2 °C 1013.1 hPa NW 8 km/h 8 km/h 38% 0 mm 118 W/m2
18:56 7.1 °C -6.7 °C 1013.1 hPa West 6.4 km/h 11.3 km/h 37% 0 mm 83 W/m2
19:02 6.9 °C -6.1 °C 1013.1 hPa NW 6.4 km/h 6.4 km/h 39% 0 mm 19 W/m2
19:08 6.7 °C -6.9 °C 1013.1 hPa WNW 4.8 km/h 6.4 km/h 37% 0 mm 18 W/m2
19:14 6.6 °C -6.7 °C 1013.1 hPa NNW 4.8 km/h 14.5 km/h 38% 0 mm 16 W/m2
19:20 6.5 °C -7.2 °C 1013.1 hPa WNW 4.8 km/h 4.8 km/h 37% 0 mm 12 W/m2
19:26 6.4 °C -6.9 °C 1013.4 hPa WNW 4.8 km/h 6.4 km/h 38% 0 mm 11 W/m2
19:32 6.3 °C -7.3 °C 1013.4 hPa WNW 4.8 km/h 6.4 km/h 37% 0 mm 7 W/m2
19:38 6.2 °C -7.1 °C 1013.4 hPa WNW 3.2 km/h 6.4 km/h 38% 0 mm 5 W/m2
19:44 6 °C -6.9 °C 1013.4 hPa WNW 3.2 km/h 3.2 km/h 39% 0 mm 0 W/m2
19:50 5.8 °C -7.1 °C 1013.4 hPa WNW 1.6 km/h 1.6 km/h 39% 0 mm 0 W/m2
19:56 5.7 °C -7.6 °C 1013.4 hPa NW 1.6 km/h 6.4 km/h 38% 0 mm 0 W/m2
20:02 5.6 °C -7 °C 1013.4 hPa NW 1.6 km/h 1.6 km/h 40% 0 mm 0 W/m2
20:08 5.4 °C -7.4 °C 1013.4 hPa WNW 1.6 km/h 4.8 km/h 39% 0 mm 0 W/m2
20:14 5.3 °C -7.2 °C 1013.4 hPa WNW 1.6 km/h 3.2 km/h 40% 0 mm 0 W/m2
20:20 5.4 °C -7.5 °C 1013.4 hPa WNW 1.6 km/h 3.2 km/h 39% 0 mm 0 W/m2
20:26 5.3 °C -7.3 °C 1013.8 hPa WNW 1.6 km/h 3.2 km/h 40% 0 mm 0 W/m2
20:32 5.1 °C -7.1 °C 1013.8 hPa Calm   3.2 km/h 41% 0 mm 0 W/m2
20:38 4.9 °C -7.2 °C 1013.8 hPa Calm   3.2 km/h 41% 0 mm 0 W/m2
20:44 4.7 °C -7.1 °C 1013.8 hPa Calm   3.2 km/h 42% 0 mm 0 W/m2
20:50 4.6 °C -7.3 °C 1013.8 hPa Calm     42% 0 mm 0 W/m2
20:56 4.4 °C -7.4 °C 1014.1 hPa Calm   1.6 km/h 42% 0 mm 0 W/m2
21:02 4.3 °C -7.2 °C 1014.1 hPa Calm     43% 0 mm 0 W/m2
21:08 4.4 °C -7.4 °C 1014.1 hPa WNW 1.6 km/h 3.2 km/h 42% 0 mm 0 W/m2
21:14 4.4 °C -7.4 °C 1014.1 hPa WNW 1.6 km/h 1.6 km/h 42% 0 mm 0 W/m2
21:20 4.4 °C -7.4 °C 1014.4 hPa WNW 1.6 km/h 1.6 km/h 42% 0 mm 0 W/m2
21:26 4.4 °C -7.4 °C 1014.4 hPa WNW 1.6 km/h 1.6 km/h 42% 0 mm 0 W/m2
21:32 4.3 °C -7.2 °C 1014.4 hPa Calm   1.6 km/h 43% 0 mm 0 W/m2
21:38 4.2 °C -6.9 °C 1014.4 hPa Calm   1.6 km/h 44% 0 mm 0 W/m2
21:44 4.2 °C -7.3 °C 1014.4 hPa WNW 1.6 km/h 1.6 km/h 43% 0 mm 0 W/m2
21:50 4.2 °C -7 °C 1014.4 hPa WNW 1.6 km/h 1.6 km/h 44% 0 mm 0 W/m2
21:56 4.1 °C -7.1 °C 1014.8 hPa Calm   3.2 km/h 44% 0 mm 0 W/m2
22:02 4.1 °C -6.8 °C 1014.8 hPa WNW 1.6 km/h 1.6 km/h 45% 0 mm 0 W/m2
22:08 4.1 °C -6.8 °C 1014.8 hPa Calm   1.6 km/h 45% 0 mm 0 W/m2
22:14 4.1 °C -6.6 °C 1014.8 hPa Calm   3.2 km/h 46% 0 mm 0 W/m2
22:20 4.2 °C -6.4 °C 1014.8 hPa WNW 1.6 km/h 1.6 km/h 46% 0 mm 0 W/m2
22:26 4.2 °C -6.4 °C 1014.8 hPa Calm   1.6 km/h 46% 0 mm 0 W/m2
22:32 4.2 °C -6.4 °C 1014.8 hPa Calm     46% 0 mm 0 W/m2
22:38 4.1 °C -6.5 °C 1014.8 hPa Calm     46% 0 mm 0 W/m2
22:44 4.1 °C -6.3 °C 1014.8 hPa Calm     47% 0 mm 0 W/m2
22:50 3.8 °C -6.4 °C 1014.8 hPa Calm   1.6 km/h 47% 0 mm 0 W/m2
22:56 3.6 °C -6.1 °C 1014.8 hPa Calm   1.6 km/h 49% 0 mm 0 W/m2
23:02 3.3 °C -6.1 °C 1014.8 hPa Calm     50% 0 mm 0 W/m2
23:08 3.1 °C -6.1 °C 1014.8 hPa Calm     51% 0 mm 0 W/m2
23:14 2.8 °C -6.1 °C 1014.8 hPa Calm     52% 0 mm 0 W/m2
23:20 2.6 °C -5.8 °C 1014.8 hPa Calm     54% 0 mm 0 W/m2
23:26 2.3 °C -6.1 °C 1014.8 hPa Calm     54% 0 mm 0 W/m2
23:32 2.1 °C -5.6 °C 1014.8 hPa Calm     57% 0 mm 0 W/m2
23:38 1.8 °C -5.6 °C 1014.8 hPa Calm     58% 0 mm 0 W/m2
23:44 1.4 °C -4.6 °C 1015.1 hPa Calm     64% 0 mm 0 W/m2
23:50 1.2 °C -4.7 °C 1015.1 hPa Calm     65% 0 mm 0 W/m2
23:56 0.9 °C -4.7 °C 1015.1 hPa Calm     66% 0 mm 0 W/m2
Country Meadow, Clay, NY, USA
Compliments of Weather Underground - 2 mb